STARLINK-34406, 64705

Orbit data source: Space-Track

STARLINK-34406, 64705 is a payload satellite owned by SpaceX/Seattle (US) in LEO that was launched on Sat, 28 Jun 2025 UTC via an FALCON 9 launch vehicle from the Air Force Western Test Range (AFWTR). Payload-class satellites include a variety of spacecraft equipped with specific instruments for various scientific and technological missions. These include communications satellites like Starlink; space stations such as the ISS; scientific satellites like the Hubble; Earth observation satellites from companies like Planet Labs, Umbra, and HawkEye 360; GPS; miniature CubeSats for education and research; and military/defense satellites.

Loading next visibility...
Identifier
64705, 2025-142K
Orbit
LEO
Country
Flag of USUS
Related business
Manufacturer
SpaceX/Seattle
Mission
Operational Commercial Communications
Bus & Motor
STARLINK V2MO, Unknown motor
Mass
575 kg wet, ~530 kg dry
Launch date (UTC)
2025-06-28 (2 months ago)
Launch vehicle
FALCON 9
Launch site
Air Force Western Test Range (AFWTR)
Object type
Payload
Rocket body
Debris
Shape & HBR
Box + 1 Pan, 14.5 m
Radar Cross Section
41.120 m², Large (>1 m²)

Expand to show TLE details & history
Last TLE update: 1 day ago

TLE from 1 day ago
0 STARLINK-34406
1 64705U 25142K   25241.95139166  .00040838  00000-0  93001-3 0  9999
2 64705  69.9999  80.1591 0003297 270.7768  89.3036 15.42743425 10824
Epoch: 2025-08-29T22:50Z
TLE epoch observation values (Epoch: 2025-08-29T22:50:00.239Z)
Latitude
-0.00003°
Longitude
119.26542°
Altitude
440.462 km
Speed
7.648 km/s
True Right ascension
05h 20m 38s
True Declination
0° 00' 00"
Sunlit
Object was in daylight at epoch
Visualization orbit readout
Latitude
Unknown
Longitude
Unknown
Altitude
Unknown
Speed
Unknown
Apparent Right ascension
Unknown
Apparent Declination
Unknown
Sunlit
N/A
Visualization observer readout
Local Sidereal Time
16:44:04
Azimuth
Unknown
Elevation
Unknown
Doppler factor
Unknown
Orbital elements
Apogee altitude
438.171 km
Perigee altitude
433.678 km
Semi-major axis
6,814.061 km
Eccentricity
0.00033
Inclination
69.9999°
RAAN
80.1591°
Arg. of periapsis
270.7768°
True anomaly
89.34138°
Mean anomaly
89.3036°
Eccentric anomaly
89.32249°
Mean motion
3.85864 °/min
Orbital period
93.3 mins
BSTAR
0.00093001
Loading maneuver chart data...
Computing Atmospheric mass density...
Loading historical data...
Loading historical data...
Loading historical data...
Loading historical data...
Loading historical data...
Loading historical data...
Loading historical data...

Documentation

Showing up to 5 results
|